[[{"header":{"parameterUnit":"m.s-1","parameterCategory":1,"la1":30.2991,"la2":30.254,"lo1":-89.0895,"lo2":-89.0444,"dy":0.0017,"dx":0.0017,"nx":28,"ny":28,"refTime":"2026-02-03T03:00:00:Z","depth":0,"parameterNumber":2,"parameterNumberName":"U-component_of_WINDS"},"data":[0,0,0,0,0,0,0,0,0,0,0,0,0,0,0,0,0,0,0,0,0,0,0,0,0,0,0,0,0,0,0,0,0,0,0,0,0,0,0,0,0,0,0,0,0,0,0,0,0,0,0,0,0,0,0,0,0,0,3.558,3.5582,0,3.5727,3.5729,3.5731,3.5706,3.5703,3.5701,3.5698,3.5847,3.5854,3.586,0,0,0,0,0,0,0,0,0,0,0,0,0,3.5277,3.5282,3.558,3.5582,3.5584,3.5727,3.5729,3.5731,3.5706,3.5703,3.57,3.5697,3.5845,3.5853,3.586,0,0,0,0,0,0,0,0,0,0,0,0,0,3.5414,3.5284,3.558,3.5589,3.5591,3.5727,3.5729,3.5731,3.5707,3.5703,3.5699,3.5696,3.5843,3.5852,3.5861,3.5997,0,0,3.5891,3.5895,0,0,0,0,0,0,0,0,3.5407,3.5426,3.5586,3.5589,3.5591,3.5694,3.5677,3.582,3.5708,3.5663,3.5698,3.5694,3.5799,3.5812,3.5848,3.6004,3.601,3.5891,3.5897,3.5901,3.5904,0,0,0,0,0,0,0,3.5397,3.5419,3.5638,3.5588,3.5592,3.5585,3.56,3.5704,3.5751,3.5667,3.5665,3.5683,3.58,3.5839,3.5852,3.6012,3.5891,3.59,3.5906,3.5909,3.6284,3.6288,0,0,0,0,0,0,3.5385,3.5411,3.5634,3.5643,3.5488,3.5593,3.5611,3.5665,3.575,3.5759,3.5686,3.5681,3.5825,3.584,3.5857,3.6018,3.5901,3.591,3.5916,3.628,3.6285,3.629,0,0,0,0,0,0,3.5379,3.5405,3.5628,3.5527,3.5555,3.5603,3.5664,3.567,3.5709,3.5764,3.5772,3.5717,3.5822,3.5843,3.5962,3.6023,3.5914,3.5923,3.6275,3.6282,3.6287,3.6344,0,0,0,0,0,0,3.537,3.5403,3.5455,3.5528,3.556,3.5731,3.5668,3.5676,3.5725,3.572,3.5796,3.5804,3.5821,3.5948,3.5971,3.6034,3.5931,3.627,3.6278,3.6285,3.6337,3.6352,3.6365,0,0,0,0,0,3.5359,3.5466,3.5458,3.5485,3.5627,3.5735,3.5753,3.577,3.5731,3.5783,3.5819,3.5802,3.6014,3.596,3.5986,3.6053,3.6266,3.6276,3.6285,3.6331,3.6349,3.6364,0,0,0,0,0,0,3.5399,3.5476,3.5468,3.5601,3.5662,3.573,3.5797,3.5789,3.5861,3.5854,3.5872,3.5889,3.6008,3.6043,3.5982,3.6188,3.6134,3.6149,3.616,3.6178,3.6191,3.6179,3.5938,0,0,0,0,0,3.5423,3.5505,3.5568,3.5679,3.571,3.5748,3.5796,3.5804,3.5867,3.5892,3.5937,3.5998,3.6078,3.613,3.6207,3.6343,3.6358,3.6402,3.6416,3.6427,3.6439,3.6511,3.653,3.6321,3.6321,3.6321,0,0,3.5474,3.5526,3.5576,3.5688,3.5736,3.5819,3.577,3.5861,3.5922,3.5906,3.602,3.6055,3.6124,3.6251,3.631,3.6284,3.65,3.6439,3.6447,3.6454,3.6523,3.6542,3.656,3.6328,3.6326,3.6325,0,0,3.5608,3.5657,3.5754,3.5803,3.5876,3.5901,3.5924,3.5994,3.6017,3.6132,3.6121,3.6194,3.6332,3.6382,3.6425,3.6578,3.6564,3.6603,3.6673,3.6743,3.6759,3.6774,3.6826,3.6844,3.6615,3.6615,3.6615,0,3.5661,3.5787,3.5805,3.5896,3.5945,3.5935,3.6032,3.6079,3.6173,3.6207,3.6177,3.6349,3.6396,3.6533,3.657,3.6607,3.6632,3.6593,3.6756,3.6771,3.6784,3.6834,3.6854,3.6619,3.6619,3.6618,3.6618,0,3.5848,3.5935,3.6005,3.6095,3.6152,3.6247,3.6278,3.6333,3.6337,3.6364,3.648,3.6536,3.6623,3.6657,3.6661,3.6795,3.6776,3.6752,3.6697,3.6808,3.6855,3.6874,3.6625,3.6623,3.6622,3.6621,0,0,3.6009,3.6109,3.6134,3.6174,3.6254,3.6321,3.6415,3.65,3.6546,3.6612,3.6689,3.6806,3.6783,3.6832,3.6842,3.6904,3.7018,3.6872,3.6873,3.6894,3.7166,3.7181,3.7203,3.7011,3.7015,3.7018,3.7159,0,3.6148,3.6313,3.6331,3.6478,3.6557,3.655,3.6631,3.6688,3.6717,3.6788,3.6819,3.6901,3.6866,3.6895,3.6957,3.6992,3.7073,3.6982,3.7081,3.7084,3.7061,3.7228,3.7245,3.7375,3.7177,3.718,3.7183,0,3.6332,3.6402,3.6557,3.6624,3.6658,3.6731,3.6809,3.6879,3.6943,3.6959,3.7014,3.7016,3.7111,3.7056,3.7186,3.7124,3.7166,3.7189,3.7195,3.7202,3.7138,3.7237,3.7417,3.7435,3.7212,3.721,3.7208,0,3.643,3.6564,3.6673,3.6708,3.6791,3.6841,3.6878,3.6939,3.6988,3.7058,3.7089,3.7169,3.7212,3.7273,3.7296,3.7254,3.7424,3.7371,3.7439,3.7438,3.7472,3.7469,3.7659,3.7505,3.7505,3.7504,3.7504,0,3.6581,3.6675,3.6718,3.6784,3.6889,3.691,3.7012,3.7047,3.7101,3.7173,3.7173,3.724,3.7268,3.734,3.7359,3.7462,3.7483,3.7497,3.75,3.7496,3.7493,3.7521,3.7511,3.7509,3.7508,3.7507,3.7506,0,3.6707,3.674,3.6857,3.6926,3.6945,3.7019,3.7077,3.7141,3.7169,3.7261,3.7284,3.7328,3.7412,3.7442,3.7545,3.7558,3.7677,3.7674,3.7655,3.7655,3.7719,3.7712,3.7931,3.7959,3.779,3.7791,3.7793,0,3.68,3.6872,3.6948,3.6997,3.7035,3.7114,3.7164,3.7188,3.724,3.7319,3.7373,3.7457,3.7525,3.7661,3.7702,3.778,3.7777,3.7849,3.7789,3.7781,3.7775,3.7769,3.7775,3.7859,3.786,3.7862,3.7863,0,3.696,3.6973,3.7046,3.7125,3.7185,3.7248,3.7309,3.7349,3.7382,3.7441,3.7527,3.758,3.7685,3.7768,3.7848,3.7885,3.7879,3.7882,3.7901,3.7895,3.7879,3.7886,3.7682,3.7876,3.7875,3.7874,3.7873,3.7873,3.707,3.7133,3.7196,3.7277,3.7326,3.7383,3.7445,3.7482,3.7554,3.7641,3.7652,3.7744,3.7806,3.7913,3.7954,3.8026,3.8006,3.8034,3.8041,3.8047,3.805,3.7871,3.8041,3.8041,3.804,3.804,3.804,0,3.7227,3.7268,3.7342,3.7428,3.7491,3.7482,3.7549,3.7602,3.7683,3.7742,3.7809,3.7908,3.7988,3.8036,3.8116,3.8164,3.8164,3.8184,3.8179,3.8187,3.8065,3.8039,3.8184,3.8184,3.8184,3.8184,3.8184,3.8183,3.7316,3.7421,3.7441,3.7569,3.7609,3.77,3.7739,3.7791,3.7837,3.7948,3.8014,3.8045,3.8099,3.8183,3.8256,3.8268,3.8296,3.8318,3.8327,3.8211,3.8196,3.8182,3.8157,3.8325,3.8325,3.8444,3.8445,3.8445]},{"header":{"parameterUnit":"m.s-1","parameterCategory":1,"la1":30.2991,"la2":30.254,"lo1":-89.0895,"lo2":-89.0444,"dy":0.0017,"dx":0.0017,"nx":28,"ny":28,"refTime":"2026-02-03T03:00:00:Z","depth":0,"parameterNumber":3,"parameterNumberName":"V-component_of_WINDS"},"data":[0,0,0,0,0,0,0,0,0,0,0,0,0,0,0,0,0,0,0,0,0,0,0,0,0,0,0,0,0,0,0,0,0,0,0,0,0,0,0,0,0,0,0,0,0,0,0,0,0,0,0,0,0,0,0,0,0,0,3.6144,3.6145,0,3.625,3.6252,3.6253,3.622,3.6218,3.6215,3.6213,3.6319,3.6323,3.6328,0,0,0,0,0,0,0,0,0,0,0,0,0,3.5908,3.5912,3.6144,3.6145,3.6147,3.625,3.6252,3.6253,3.622,3.6218,3.6215,3.6212,3.6317,3.6323,3.6329,0,0,0,0,0,0,0,0,0,0,0,0,0,3.6012,3.5914,3.6144,3.6143,3.6144,3.625,3.6252,3.6253,3.6221,3.6217,3.6214,3.6211,3.6315,3.6322,3.6329,3.6442,0,0,3.6352,3.6355,0,0,0,0,0,0,0,0,3.6006,3.6021,3.6142,3.6143,3.6144,3.6219,3.6207,3.6316,3.6222,3.6192,3.6213,3.6209,3.6288,3.6297,3.6324,3.6447,3.6451,3.6353,3.6357,3.636,3.6362,0,0,0,0,0,0,0,3.5999,3.6016,3.6186,3.6143,3.6145,3.6136,3.6147,3.6228,3.6257,3.6194,3.6192,3.6205,3.6288,3.6317,3.6327,3.6453,3.6352,3.6359,3.6363,3.6366,3.667,3.6674,0,0,0,0,0,0,3.5991,3.601,3.6183,3.6189,3.6066,3.6143,3.6155,3.6198,3.6256,3.6262,3.6208,3.6203,3.6306,3.6318,3.633,3.6464,3.636,3.6367,3.6371,3.6667,3.6671,3.6675,0,0,0,0,0,0,3.5986,3.6007,3.6178,3.6099,3.612,3.615,3.6199,3.6202,3.6231,3.6267,3.6271,3.6233,3.6304,3.632,3.6414,3.6467,3.637,3.6377,3.6662,3.6668,3.6673,3.6734,0,0,0,0,0,0,3.598,3.6006,3.605,3.61,3.6125,3.6262,3.6202,3.6206,3.6245,3.6239,3.6291,3.6297,3.6303,3.6403,3.6421,3.6476,3.6383,3.6657,3.6665,3.6671,3.6727,3.6741,3.6752,0,0,0,0,0,3.5972,3.6062,3.6052,3.6073,3.6181,3.6265,3.6279,3.6285,3.6249,3.6293,3.6315,3.6295,3.6459,3.6413,3.6433,3.6491,3.6654,3.6663,3.6671,3.6721,3.6738,3.6752,0,0,0,0,0,0,3.6016,3.6069,3.6058,3.6169,3.6213,3.626,3.6315,3.6303,3.6357,3.635,3.6354,3.6366,3.6463,3.6486,3.6434,3.6601,3.6551,3.6563,3.6583,3.6599,3.6611,3.6603,3.6389,0,0,0,0,0,3.6039,3.6105,3.6147,3.624,3.6263,3.6285,3.6322,3.6323,3.6369,3.6387,3.6416,3.646,3.6521,3.6561,3.6619,3.673,3.674,3.6779,3.6792,3.6802,3.6813,3.6871,3.6889,3.6702,3.6702,3.6702,0,0,3.6087,3.6124,3.6165,3.625,3.6284,3.635,3.6301,3.6374,3.6422,3.6397,3.6488,3.6511,3.656,3.6663,3.6709,3.6685,3.6866,3.6813,3.682,3.6826,3.6882,3.6899,3.6915,3.6708,3.6707,3.6706,0,0,3.6207,3.6242,3.6323,3.6359,3.6411,3.6426,3.6445,3.6494,3.6508,3.6599,3.6582,3.6639,3.6744,3.6779,3.6811,3.6943,3.6926,3.6962,3.7028,3.7084,3.7099,3.7112,3.7158,3.7174,3.6973,3.6973,3.6973,0,3.6259,3.636,3.6366,3.644,3.6477,3.6458,3.6539,3.6572,3.6641,3.6666,3.6638,3.677,3.6801,3.6911,3.6943,3.697,3.6991,3.6956,3.7097,3.711,3.7122,3.7166,3.7183,3.6977,3.6976,3.6976,3.6975,0,3.642,3.649,3.6549,3.6617,3.666,3.6737,3.6753,3.6796,3.6793,3.6809,3.6901,3.6939,3.7003,3.703,3.7027,3.7139,3.7122,3.7096,3.7045,3.7144,3.7185,3.7202,3.6982,3.6981,3.698,3.6979,0,0,3.6573,3.6642,3.6663,3.6693,3.6749,3.6803,3.6878,3.6942,3.6978,3.7026,3.7088,3.7177,3.7152,3.7188,3.7189,3.7239,3.734,3.7207,3.7208,3.7229,3.7463,3.7482,3.7501,3.7329,3.7332,3.7335,3.7458,0,3.6697,3.6831,3.6837,3.6958,3.7021,3.7004,3.7069,3.7109,3.7127,3.7182,3.72,3.7262,3.7226,3.7248,3.7296,3.7317,3.7386,3.7308,3.7385,3.7387,3.7372,3.7523,3.7543,3.7658,3.7474,3.7477,3.7479,0,3.686,3.6913,3.7041,3.7087,3.7113,3.7172,3.723,3.7284,3.7329,3.7337,3.7377,3.737,3.7445,3.7392,3.7494,3.7441,3.7472,3.7487,3.7491,3.7498,3.7439,3.7532,3.7695,3.7712,3.7505,3.7503,3.7501,0,3.6957,3.706,3.7149,3.7175,3.7232,3.7273,3.7298,3.734,3.7377,3.7428,3.7452,3.751,3.7542,3.7586,3.7594,3.7556,3.7696,3.7644,3.7704,3.7704,3.7734,3.7732,3.7903,3.7756,3.7755,3.7755,3.7755,0,3.7094,3.7173,3.7193,3.7248,3.7334,3.7341,3.7425,3.7447,3.7484,3.7541,3.7529,3.7583,3.7591,3.7646,3.7653,3.7736,3.775,3.7758,3.7759,3.7759,3.7758,3.7779,3.7771,3.776,3.7759,3.7758,3.7757,0,3.7217,3.7234,3.733,3.7375,3.7388,3.745,3.7488,3.7539,3.7554,3.7627,3.7644,3.7668,3.7732,3.7745,3.782,3.7825,3.7922,3.7916,3.7908,3.7907,3.7965,3.7959,3.8156,3.8181,3.8018,3.8019,3.8021,0,3.7303,3.7363,3.7415,3.7453,3.748,3.7542,3.758,3.7587,3.7628,3.7682,3.7727,3.779,3.784,3.7943,3.7966,3.8023,3.8017,3.8082,3.8025,3.8023,3.8016,3.8012,3.8017,3.8092,3.8094,3.8095,3.8097,0,3.7454,3.746,3.7516,3.7576,3.7622,3.7669,3.7713,3.7744,3.7758,3.7803,3.7869,3.7908,3.7985,3.8047,3.8104,3.8128,3.8114,3.8114,3.8131,3.8131,3.8124,3.8127,3.7936,3.811,3.8108,3.8107,3.8107,3.8106,3.7561,3.7612,3.7657,3.7719,3.7754,3.7795,3.7845,3.7867,3.7923,3.7987,3.7987,3.8059,3.81,3.8175,3.8202,3.8257,3.8236,3.8261,3.8267,3.8272,3.8277,3.8116,3.8267,3.8267,3.8267,3.8266,3.8266,0,3.771,3.7737,3.7795,3.7858,3.7907,3.7891,3.7939,3.798,3.8044,3.8084,3.8134,3.8209,3.8268,3.8296,3.8354,3.8392,3.8387,3.8407,3.8404,3.8409,3.8293,3.8272,3.841,3.841,3.841,3.841,3.841,3.841,3.7794,3.788,3.789,3.7992,3.8019,3.809,3.8118,3.8156,3.8188,3.8272,3.8322,3.834,3.8374,3.8434,3.8488,3.8494,3.8515,3.8538,3.8541,3.8432,3.8418,3.8404,3.8384,3.8543,3.8543,3.8653,3.8654,3.8654]}]]